CW1490 Weather Reports


Display with metric or nautical units.
time (UTC)temp
F
wind
direction
speed
MPH
gust
MPH
rain 1hr
in
rain 24hr
in
rain mn
in
humidity
%
barometer
mb
20141101000602 44 75 0.0 0.0 0.00 0.00 0.00 84 1015.8
20141031235102 44 76 0.0 0.0 0.00 0.00 0.00 84 1015.5
20141031233601 45 27 0.0 2.0 0.00 0.00 0.00 82 1015.5
20141031232100 45 44 0.0 0.0 0.00 0.00 0.00 83 1015.6
20141031230600 45 44 0.0 2.0 0.00 0.00 0.00 84 1015.6
20141031225059 45 44 0.0 3.0 0.00 0.00 0.00 80 1015.4
20141031223559 45 55 0.0 0.0 0.00 0.00 0.00 82 1015.3
20141031222059 45 55 0.0 0.0 0.00 0.00 0.00 77 1014.9
20141031220558 46 55 0.0 0.0 0.00 0.00 0.00 77 1014.7
20141031215058 47 55 0.0 0.0 0.00 0.00 0.00 74 1014.9
20141031213557 48 55 0.0 0.0 0.00 0.00 0.00 72 1014.8
20141031212057 48 55 0.0 4.0 0.00 0.00 0.00 70 1014.7
20141031210556 49 41 2.0 5.0 0.00 0.00 0.00 68 1014.6
20141031205057 49 38 2.0 4.0 0.00 0.00 0.00 69 1014.6
20141031203555 49 38 2.0 3.0 0.00 0.00 0.00 68 1014.7
20141031202055 49 26 2.0 5.0 0.00 0.00 0.00 69 1014.7
20141031200553 49 36 1.0 5.0 0.00 0.00 0.00 69 1014.9
20141031195053 50 45 2.0 4.0 0.00 0.00 0.00 66 1014.9
20141031193553 49 20 0.0 1.0 0.00 0.00 0.00 67 1015.1
20141031192052 49 22 1.0 3.0 0.00 0.00 0.00 67 1014.9
20141031190751 49 276 0.0 3.0 0.00 0.00 0.00 66 1014.9
20141031185051 50 4 0.0 0.0 0.00 0.00 0.00 69 1015.0
20141031183551 49 7 0.0 1.0 0.00 0.00 0.00 68 1015.0
20141031182051 49 9 0.0 3.0 0.00 0.00 0.00 67 1014.9
20141031180548 49 45 1.0 5.0 0.00 0.00 0.00 66 1015.1
20141031175045 49 9 0.0 4.0 0.00 0.00 0.00 70 1015.4
20141031173545 49 13 1.0 3.0 0.00 0.00 0.00 68 1015.4
20141031172042 49 345 1.0 5.0 0.00 0.00 0.00 71 1015.5
20141031170540 48 49 2.0 6.0 0.00 0.00 0.00 70 1015.7
20141031165038 48 355 2.0 5.0 0.00 0.00 0.00 70 1015.9
20141031163537 48 341 0.0 4.0 0.00 0.00 0.00 73 1016.1
20141031162035 47 39 3.0 6.0 0.00 0.00 0.00 72 1016.2
20141031160534 47 12 2.0 6.0 0.00 0.00 0.00 73 1016.3
20141031155032 46 61 3.0 5.0 0.00 0.00 0.00 75 1016.5
20141031153529 46 34 3.0 5.0 0.00 0.00 0.00 78 1016.5
20141031152027 45 36 0.0 0.0 0.00 0.00 0.00 79 1016.7
20141031150524 45 36 0.0 0.0 0.00 0.00 0.00 83 1016.7
20141031145021 44 36 0.0 0.0 0.00 0.00 0.00 84 1016.7
20141031143519 44 34 0.0 0.0 0.00 0.00 0.00 86 1016.9
20141031142018 43 36 0.0 0.0 0.00 0.00 0.00 89 1016.9
20141031140517 42 345 0.0 0.0 0.00 0.00 0.00 92 1017.0
20141031135015 42 345 0.0 0.0 0.00 0.00 0.00 94 1017.2
20141031133515 41 345 0.0 0.0 0.00 0.00 0.00 95 1017.3
20141031132014 40 269 0.0 0.0 0.00 0.00 0.00 96 1017.4
20141031130511 40 329 0.0 0.0 0.00 0.00 0.00 96 1017.3
20141031125008 39 329 0.0 0.0 0.00 0.00 0.00 96 1017.4
20141031123506 39 329 0.0 0.0 0.00 0.00 0.00 96 1017.5
20141031122003 39 329 0.0 0.0 0.00 0.00 0.00 96 1017.2
20141031120458 38 329 0.0 0.0 0.00 0.00 0.00 96 1017.1
20141031115156 38 329 0.0 0.0 0.00 0.00 0.00 96 1016.9
20141031113454 38 329 0.0 0.0 0.00 0.00 0.00 95 1016.9
20141031111954 38 329 0.0 0.0 0.00 0.00 0.00 96 1016.8
20141031110452 38 329 0.0 0.0 0.00 0.00 0.00 95 1016.7
20141031104952 38 329 0.0 0.0 0.00 0.00 0.00 95 1016.8
20141031103451 38 329 0.0 0.0 0.00 0.00 0.00 95 1016.6
20141031101950 38 329 0.0 0.0 0.00 0.00 0.00 95 1016.5
20141031100449 37 329 0.0 0.0 0.00 0.00 0.00 95 1016.5
20141031094948 37 329 0.0 0.0 0.00 0.00 0.00 95 1016.5
20141031093447 37 329 0.0 0.0 0.00 0.00 0.00 95 1016.4
20141031091946 37 329 0.0 0.0 0.00 0.00 0.00 94 1016.4
20141031090445 37 329 0.0 0.0 0.00 0.00 0.00 94 1016.3
20141031084945 36 329 0.0 0.0 0.00 0.00 0.00 94 1016.3
20141031083443 36 329 0.0 0.0 0.00 0.00 0.00 93 1016.2
20141031081941 37 329 0.0 0.0 0.00 0.00 0.00 93 1016.1
20141031080439 37 329 0.0 0.0 0.00 0.00 0.00 92 1016.0
20141031074938 38 329 0.0 0.0 0.00 0.00 0.00 92 1015.9
20141031073435 39 329 0.0 0.0 0.00 0.00 0.00 92 1015.8
20141031071933 39 329 0.0 0.0 0.00 0.00 0.00 92 1015.6
20141031070431 40 329 0.0 0.0 0.00 0.00 0.00 92 1015.6
20141031064928 41 329 0.0 0.0 0.00 0.00 0.00 92 1015.7
20141031063427 41 329 0.0 0.0 0.00 0.00 0.00 92 1015.8
20141031061925 41 329 0.0 0.0 0.00 0.00 0.00 92 1015.9
20141031060425 41 329 0.0 0.0 0.00 0.00 0.00 92 1016.0
20141031054924 41 329 0.0 2.0 0.00 0.00 0.00 91 1016.0
20141031053422 42 329 0.0 2.0 0.00 0.00 0.00 90 1016.0
20141031051919 43 17 0.0 2.0 0.00 0.00 0.00 89 1015.8
20141031050417 43 350 0.0 3.0 0.00 0.00 0.00 88 1015.6
20141031044916 43 12 0.0 3.0 0.00 0.00 0.00 90 1015.7
20141031043614 43 259 0.0 0.0 0.00 0.00 0.00 91 1015.7
20141031041913 44 259 0.0 0.0 0.00 0.00 0.00 91 1015.5
20141031040411 43 259 0.0 0.0 0.00 0.00 0.00 91 1015.4
20141031034910 44 315 0.0 0.0 0.00 0.00 0.00 91 1015.3
20141031033410 44 315 0.0 0.0 0.00 0.00 0.00 91 1015.4
20141031031909 44 315 0.0 0.0 0.00 0.00 0.00 91 1015.3
20141031030408 44 315 0.0 0.0 0.00 0.00 0.00 90 1015.2
20141031024907 44 315 0.0 0.0 0.00 0.01 0.00 90 1015.3
20141031023406 44 315 0.0 0.0 0.00 0.01 0.00 91 1015.2
20141031021905 45 315 0.0 0.0 0.00 0.01 0.00 90 1015.2
20141031020405 45 315 0.0 0.0 0.00 0.01 0.00 90 1015.2
20141031014904 45 315 0.0 0.0 0.00 0.01 0.00 90 1015.1
20141031013403 45 315 0.0 0.0 0.00 0.01 0.00 89 1015.1
20141031011902 45 315 0.0 0.0 0.00 0.01 0.00 89 1015.0
20141031010636 45 315 0.0 0.0 0.00 0.01 0.00 87 1014.8
20141031004859 45 315 0.0 0.0 0.00 0.01 0.00 87 1014.7
20141031003357 46 315 0.0 0.0 0.00 0.01 0.00 87 1014.6
20141031001857 46 315 0.0 0.0 0.00 0.01 0.00 87 1014.6